If you wish to contribute or participate in the discussions about articles you are invited to join SKYbrary as a registered user

 Actions

Arad International Airport

From SKYbrary Wiki

LRAR
Airport
ICAO: LRAR – IATA: ARW
Summary
Name Arad International Airport
Region
Territory Romania RO.gif
Location , Arad
Serving Arad
Elevation 107.29 m
352 ft
352 ft107.29 m
Type medium airport
Coordinates 46° 10' 35.58" N, 21° 15' 43.28" E
Runways
Designator Length Width Surface ROPS
9/27 2000 m6,561.68 ft
45 m147.638 ft
CON /


METAR
Observation LRAR 180800Z 20005KT 160V240 CAVOK 25/14 Q1017
Station Arad
Date/Time 18 August 2019 08:00:00
Wind direction 200°
Wind speed 05 kts
Lowest cloud amount clouds and visibility OK
Temperature 25°C
Dew point 14°C
Humidity 50%
QNH 1017 hPa
Weather condition n/a